NKS745 KLAX-KDTW

Flight info

Callsign NKS745
Flight time 4h 6m
Altitude 35000
Route DOTSS2 CLEEE PKE DRK TBE GCK IRK JOT J146 GIJ HOSSA VCTRZ2
Aircraft A320/M-SDE3FGHIRWY/LB1

Departure

Time 2026-04-20 03:06
Airport Los Angeles International Airport (KLAX)

Arrival

Time 2026-04-20 07:12
Airport Detroit Metropolitan Wayne County Airport (KDTW)
Time Latitude Longitude Altitude Speed Heading
2026-04-20 02:56 33.94498 -118.41803 93 ft 22 kts 173°
2026-04-20 02:56 33.94352 -118.41775 93 ft 18 kts 172°
2026-04-20 02:57 33.94230 -118.41758 94 ft 19 kts 173°
2026-04-20 02:57 33.94100 -118.41738 95 ft 19 kts 173°
2026-04-20 02:57 33.93958 -118.41717 95 ft 22 kts 173°
2026-04-20 02:57 33.93837 -118.41699 95 ft 15 kts 174°
2026-04-20 02:58 33.93729 -118.41671 96 ft 17 kts 140°
2026-04-20 02:58 33.93728 -118.41491 95 ft 28 kts 82°
2026-04-20 02:58 33.93753 -118.41249 95 ft 30 kts 83°
2026-04-20 02:58 33.93778 -118.41023 93 ft 27 kts 83°
2026-04-20 02:59 33.93798 -118.40795 96 ft 27 kts 83°
2026-04-20 02:59 33.93822 -118.40570 96 ft 26 kts 82°
2026-04-20 02:59 33.93842 -118.40361 95 ft 24 kts 85°
2026-04-20 02:59 33.93863 -118.40156 96 ft 25 kts 81°
2026-04-20 03:00 33.93887 -118.39939 97 ft 27 kts 83°
2026-04-20 03:00 33.93909 -118.39710 95 ft 29 kts 83°
2026-04-20 03:00 33.93935 -118.39466 94 ft 30 kts 83°
2026-04-20 03:00 33.93962 -118.39209 93 ft 32 kts 83°
2026-04-20 03:01 33.93990 -118.38942 94 ft 33 kts 83°
2026-04-20 03:01 33.94013 -118.38710 96 ft 19 kts 83°
2026-04-20 03:01 33.94029 -118.38550 95 ft 20 kts 83°
2026-04-20 03:01 33.94047 -118.38383 95 ft 20 kts 83°
2026-04-20 03:02 33.94064 -118.38213 94 ft 21 kts 82°
2026-04-20 03:02 33.94080 -118.38046 93 ft 15 kts 98°
2026-04-20 03:02 33.93996 -118.37996 93 ft 12 kts 183°
2026-04-20 03:02 33.93982 -118.38042 95 ft 5 kts 262°
2026-04-20 03:03 33.93982 -118.38046 95 ft 0 kts 261°
2026-04-20 03:05 33.93982 -118.38047 95 ft 1 kts 261°
2026-04-20 03:05 33.93973 -118.38124 94 ft 30 kts 262°
2026-04-20 03:05 33.93917 -118.38637 98 ft 93 kts 262°
2026-04-20 03:05 33.93824 -118.39602 99 ft 136 kts 261°
2026-04-20 03:06 33.93703 -118.40839 301 ft 151 kts 264°
2026-04-20 03:06 33.93572 -118.42106 771 ft 154 kts 262°
2026-04-20 03:06 33.93435 -118.43392 1256 ft 156 kts 263°
2026-04-20 03:06 33.93306 -118.44702 1720 ft 159 kts 263°
2026-04-20 03:07 33.93017 -118.46022 2053 ft 173 kts 242°
2026-04-20 03:07 33.92275 -118.47245 2249 ft 192 kts 231°
2026-04-20 03:07 33.91392 -118.48576 2463 ft 215 kts 231°
2026-04-20 03:07 33.90416 -118.50041 2739 ft 236 kts 230°
2026-04-20 03:08 33.89310 -118.51633 3114 ft 258 kts 230°
2026-04-20 03:08 33.88125 -118.53308 3849 ft 266 kts 229°
2026-04-20 03:08 33.86882 -118.54935 4678 ft 270 kts 218°
2026-04-20 03:08 33.85188 -118.55901 5486 ft 274 kts 189°
2026-04-20 03:09 33.83283 -118.55791 6300 ft 277 kts 167°
2026-04-20 03:09 33.81389 -118.55283 7137 ft 280 kts 167°
2026-04-20 03:09 33.79480 -118.54754 7940 ft 283 kts 167°
2026-04-20 03:09 33.77549 -118.54217 8718 ft 287 kts 167°
2026-04-20 03:10 33.75593 -118.53676 9478 ft 290 kts 167°
2026-04-20 03:10 33.73614 -118.53132 10211 ft 293 kts 166°
2026-04-20 03:10 33.71704 -118.52241 10906 ft 297 kts 150°
2026-04-20 03:10 33.70004 -118.50706 11178 ft 318 kts 133°
2026-04-20 03:11 33.68685 -118.48476 11311 ft 340 kts 115°
2026-04-20 03:11 33.67822 -118.45744 11443 ft 360 kts 109°
2026-04-20 03:11 33.66979 -118.42850 11801 ft 372 kts 109°
2026-04-20 03:11 33.66128 -118.39941 12369 ft 376 kts 109°
2026-04-20 03:12 33.65253 -118.36965 12970 ft 380 kts 109°
2026-04-20 03:12 33.64612 -118.33878 13533 ft 383 kts 98°
2026-04-20 03:12 33.64457 -118.30674 14092 ft 387 kts 90°
2026-04-20 03:12 33.64469 -118.27436 14641 ft 390 kts 90°
2026-04-20 03:13 33.64476 -118.24171 15173 ft 393 kts 90°
2026-04-20 03:13 33.64479 -118.20884 15693 ft 396 kts 90°
2026-04-20 03:13 33.64476 -118.17571 16203 ft 399 kts 90°
2026-04-20 03:13 33.64471 -118.14231 16708 ft 402 kts 90°
2026-04-20 03:14 33.64467 -118.10866 17022 ft 404 kts 90°
2026-04-20 03:14 33.64463 -118.07494 17094 ft 404 kts 90°
2026-04-20 03:14 33.64459 -118.04170 17101 ft 404 kts 90°
2026-04-20 03:14 33.64456 -118.00799 17101 ft 404 kts 90°
2026-04-20 03:15 33.64453 -117.97428 17104 ft 404 kts 90°
2026-04-20 03:15 33.64446 -117.94056 17102 ft 404 kts 90°
2026-04-20 03:15 33.64440 -117.90674 17416 ft 407 kts 90°
2026-04-20 03:15 33.64435 -117.87269 17939 ft 409 kts 90°
2026-04-20 03:16 33.64429 -117.83839 18443 ft 412 kts 90°
2026-04-20 03:16 33.64477 -117.80388 18927 ft 415 kts 85°
2026-04-20 03:16 33.64908 -117.76953 19402 ft 418 kts 77°
2026-04-20 03:16 33.65570 -117.73540 19875 ft 421 kts 77°
2026-04-20 03:17 33.66233 -117.70109 20341 ft 424 kts 77°
2026-04-20 03:17 33.66901 -117.66647 20781 ft 427 kts 77°
2026-04-20 03:17 33.67564 -117.63211 21198 ft 429 kts 77°
2026-04-20 03:17 33.68238 -117.59708 21607 ft 432 kts 77°
2026-04-20 03:18 33.68914 -117.56185 21996 ft 435 kts 77°
2026-04-20 03:18 33.69592 -117.52634 22374 ft 437 kts 77°
2026-04-20 03:18 33.70270 -117.49067 22739 ft 440 kts 77°
2026-04-20 03:18 33.70952 -117.45478 23103 ft 442 kts 77°
2026-04-20 03:19 33.71639 -117.41874 23462 ft 444 kts 77°
2026-04-20 03:19 33.72329 -117.38244 23798 ft 447 kts 77°
2026-04-20 03:19 33.73019 -117.34597 24139 ft 449 kts 77°
2026-04-20 03:19 33.73709 -117.30934 24471 ft 451 kts 77°
2026-04-20 03:20 33.74397 -117.27298 24797 ft 453 kts 77°
2026-04-20 03:20 33.74975 -117.23565 25117 ft 456 kts 84°
2026-04-20 03:20 33.75088 -117.19758 25433 ft 458 kts 91°
2026-04-20 03:20 33.75001 -117.15925 25747 ft 460 kts 91°
2026-04-20 03:21 33.74912 -117.12083 26176 ft 459 kts 91°
2026-04-20 03:21 33.74826 -117.08255 26634 ft 458 kts 91°
2026-04-20 03:21 33.74746 -117.04432 27081 ft 457 kts 91°
2026-04-20 03:21 33.74669 -117.00621 27521 ft 456 kts 91°
2026-04-20 03:22 33.74592 -116.96864 27952 ft 455 kts 91°
2026-04-20 03:22 33.74510 -116.93058 28339 ft 456 kts 91°
2026-04-20 03:22 33.74427 -116.89245 28708 ft 457 kts 91°
2026-04-20 03:22 33.74346 -116.85437 29096 ft 456 kts 91°
2026-04-20 03:23 33.74263 -116.81629 29504 ft 456 kts 91°
2026-04-20 03:23 33.74176 -116.77829 29915 ft 455 kts 91°
2026-04-20 03:23 33.74086 -116.74034 30324 ft 454 kts 91°
2026-04-20 03:23 33.73995 -116.70248 30728 ft 453 kts 91°
2026-04-20 03:24 33.73901 -116.66465 31125 ft 452 kts 91°
2026-04-20 03:24 33.73809 -116.62742 31513 ft 452 kts 91°
2026-04-20 03:24 33.73717 -116.58972 31903 ft 451 kts 91°
2026-04-20 03:24 33.73626 -116.55210 32289 ft 450 kts 91°
2026-04-20 03:25 33.73534 -116.51455 32673 ft 450 kts 91°
2026-04-20 03:25 33.73441 -116.47702 33053 ft 449 kts 91°
2026-04-20 03:25 33.73348 -116.43960 33429 ft 448 kts 91°
2026-04-20 03:25 33.73252 -116.40220 33802 ft 447 kts 92°
2026-04-20 03:26 33.73155 -116.36488 34163 ft 447 kts 92°
2026-04-20 03:26 33.73055 -116.32761 34507 ft 446 kts 92°
2026-04-20 03:26 33.72953 -116.29090 34825 ft 445 kts 92°
2026-04-20 03:26 33.72849 -116.25374 35025 ft 446 kts 92°
2026-04-20 03:27 33.72743 -116.21632 35066 ft 452 kts 92°
2026-04-20 03:27 33.72523 -116.14003 35064 ft 460 kts 92°
2026-04-20 03:28 33.72809 -116.06343 35064 ft 460 kts 78°
2026-04-20 03:28 33.75675 -115.95384 35064 ft 461 kts 71°
2026-04-20 03:29 33.77698 -115.88073 35064 ft 461 kts 71°
2026-04-20 03:29 33.79724 -115.80756 35070 ft 461 kts 71°
2026-04-20 03:30 33.81748 -115.73428 35070 ft 462 kts 71°
2026-04-20 03:30 33.83748 -115.66149 35071 ft 462 kts 72°
2026-04-20 03:31 33.85761 -115.58813 35079 ft 462 kts 72°
2026-04-20 03:31 33.87771 -115.51474 35077 ft 462 kts 72°
2026-04-20 03:32 33.89778 -115.44132 35080 ft 462 kts 72°
2026-04-20 03:32 33.91767 -115.36838 35070 ft 462 kts 72°
2026-04-20 03:33 33.93763 -115.29490 35076 ft 462 kts 72°
2026-04-20 03:33 33.95747 -115.22137 35077 ft 462 kts 72°
2026-04-20 03:34 33.97731 -115.14781 35076 ft 462 kts 72°
2026-04-20 03:34 33.99716 -115.07425 35076 ft 462 kts 72°
2026-04-20 03:35 34.01687 -115.00113 35076 ft 462 kts 72°
2026-04-20 03:35 34.03658 -114.92749 35073 ft 462 kts 72°
2026-04-20 03:36 34.05626 -114.85378 35080 ft 462 kts 72°
2026-04-20 03:36 34.07596 -114.78001 35080 ft 462 kts 72°
2026-04-20 03:37 34.09544 -114.70674 35081 ft 462 kts 72°
2026-04-20 03:37 34.11530 -114.63301 35079 ft 462 kts 71°
2026-04-20 03:38 34.13617 -114.55972 35078 ft 462 kts 71°
2026-04-20 03:38 34.15725 -114.48648 35075 ft 462 kts 71°
2026-04-20 03:39 34.17796 -114.41369 35070 ft 462 kts 71°
2026-04-20 03:39 34.19847 -114.34022 35075 ft 462 kts 71°
2026-04-20 03:40 34.21895 -114.26672 35073 ft 462 kts 71°
2026-04-20 03:40 34.23958 -114.19324 35073 ft 462 kts 71°
2026-04-20 03:41 34.26089 -114.12006 35073 ft 461 kts 69°
2026-04-20 03:41 34.28515 -114.04883 35072 ft 461 kts 66°
2026-04-20 03:42 34.31051 -113.97753 35073 ft 462 kts 67°
2026-04-20 03:42 34.33519 -113.90584 35070 ft 462 kts 68°
2026-04-20 03:43 34.35940 -113.83386 35075 ft 462 kts 68°
2026-04-20 03:43 34.38347 -113.76183 35073 ft 462 kts 68°
2026-04-20 03:44 34.40748 -113.69028 35070 ft 462 kts 68°
2026-04-20 03:44 34.43164 -113.61823 35075 ft 462 kts 68°
2026-04-20 03:45 34.45576 -113.54613 35074 ft 462 kts 68°
2026-04-20 03:45 34.47976 -113.47401 35076 ft 462 kts 68°
2026-04-20 03:46 34.50365 -113.40223 35076 ft 462 kts 68°
2026-04-20 03:46 34.52768 -113.33001 35069 ft 462 kts 68°
2026-04-20 03:47 34.55157 -113.25766 35080 ft 462 kts 68°
2026-04-20 03:47 34.57543 -113.18528 35076 ft 462 kts 68°
2026-04-20 03:48 34.59920 -113.11338 35081 ft 462 kts 68°
2026-04-20 03:48 34.62303 -113.04091 35074 ft 462 kts 68°
2026-04-20 03:49 34.64682 -112.96844 35080 ft 462 kts 68°
2026-04-20 03:49 34.67059 -112.89582 35082 ft 462 kts 68°
2026-04-20 03:50 34.69416 -112.82371 35080 ft 462 kts 68°
2026-04-20 03:50 34.71787 -112.75104 35084 ft 462 kts 68°
2026-04-20 03:51 34.74141 -112.67830 35077 ft 463 kts 69°
2026-04-20 03:51 34.76498 -112.60551 35081 ft 463 kts 68°
2026-04-20 03:52 34.78463 -112.54500 35085 ft 463 kts 68°
2026-04-20 03:52 34.81197 -112.46031 35082 ft 463 kts 69°
2026-04-20 03:53 34.83546 -112.38742 35086 ft 463 kts 69°
2026-04-20 03:53 34.85496 -112.32676 35081 ft 463 kts 69°
2026-04-20 03:54 34.87838 -112.25378 35086 ft 463 kts 69°
2026-04-20 03:54 34.90552 -112.16890 35082 ft 463 kts 69°
2026-04-20 03:55 34.92499 -112.10764 35086 ft 463 kts 69°
2026-04-20 03:55 34.94803 -112.03498 35082 ft 463 kts 69°
2026-04-20 03:56 34.97123 -111.96185 35085 ft 463 kts 69°
2026-04-20 03:56 34.99440 -111.88867 35082 ft 463 kts 69°
2026-04-20 03:57 35.01750 -111.81547 35081 ft 462 kts 69°
2026-04-20 03:57 35.04045 -111.74271 35076 ft 462 kts 69°
2026-04-20 03:58 35.06347 -111.66943 35079 ft 462 kts 69°
2026-04-20 03:58 35.08644 -111.59613 35074 ft 462 kts 69°
2026-04-20 03:59 35.10932 -111.52276 35082 ft 462 kts 69°
2026-04-20 03:59 35.13206 -111.44989 35081 ft 462 kts 69°
2026-04-20 04:00 35.15490 -111.37647 35077 ft 462 kts 69°
2026-04-20 04:00 35.17775 -111.30305 35076 ft 462 kts 69°
2026-04-20 04:01 35.20051 -111.22959 35074 ft 462 kts 69°
2026-04-20 04:01 35.22319 -111.15610 35079 ft 462 kts 69°
2026-04-20 04:02 35.24585 -111.08254 35072 ft 462 kts 69°
2026-04-20 04:02 35.26829 -111.00943 35074 ft 462 kts 69°
2026-04-20 04:03 35.29081 -110.93575 35075 ft 462 kts 69°
2026-04-20 04:03 35.31331 -110.86213 35077 ft 462 kts 69°
2026-04-20 04:04 35.33579 -110.78851 35072 ft 462 kts 69°
2026-04-20 04:04 35.35803 -110.71531 35069 ft 462 kts 70°
2026-04-20 04:05 35.38037 -110.64153 35074 ft 462 kts 70°
2026-04-20 04:05 35.40275 -110.56772 35076 ft 462 kts 70°
2026-04-20 04:06 35.42507 -110.49388 35078 ft 462 kts 70°
2026-04-20 04:06 35.44735 -110.41991 35079 ft 462 kts 70°
2026-04-20 04:07 35.46940 -110.34640 35078 ft 462 kts 70°
2026-04-20 04:07 35.49151 -110.27237 35076 ft 462 kts 70°
2026-04-20 04:08 35.51365 -110.19830 35074 ft 462 kts 70°
2026-04-20 04:08 35.53575 -110.12424 35078 ft 462 kts 70°
2026-04-20 04:09 35.55765 -110.05065 35072 ft 462 kts 70°
2026-04-20 04:09 35.57959 -109.97650 35071 ft 462 kts 70°
2026-04-20 04:10 35.60152 -109.90232 35070 ft 462 kts 70°
2026-04-20 04:10 35.62342 -109.82814 35070 ft 462 kts 70°
2026-04-20 04:11 35.64505 -109.75441 35074 ft 462 kts 70°
2026-04-20 04:11 35.66684 -109.68011 35069 ft 462 kts 70°
2026-04-20 04:12 35.68858 -109.60579 35068 ft 462 kts 70°
2026-04-20 04:12 35.71026 -109.53141 35067 ft 462 kts 70°
2026-04-20 04:13 35.73176 -109.45747 35070 ft 462 kts 70°
2026-04-20 04:13 35.75335 -109.38299 35071 ft 462 kts 70°
2026-04-20 04:14 35.77495 -109.30851 35065 ft 462 kts 70°
2026-04-20 04:14 35.79649 -109.23400 35074 ft 462 kts 70°
2026-04-20 04:15 35.81779 -109.15993 35074 ft 462 kts 70°
2026-04-20 04:15 35.83922 -109.08534 35071 ft 462 kts 70°
2026-04-20 04:16 35.86059 -109.01065 35073 ft 462 kts 70°
2026-04-20 04:16 35.88191 -108.93592 35068 ft 462 kts 70°
2026-04-20 04:17 35.90304 -108.86166 35076 ft 462 kts 71°
2026-04-20 04:17 35.92428 -108.78677 35070 ft 462 kts 71°
2026-04-20 04:18 35.94552 -108.71186 35076 ft 462 kts 71°
2026-04-20 04:18 35.96671 -108.63697 35073 ft 462 kts 71°
2026-04-20 04:19 35.98770 -108.56250 35079 ft 463 kts 71°
2026-04-20 04:19 36.00872 -108.48744 35080 ft 463 kts 71°
2026-04-20 04:20 36.02973 -108.41235 35079 ft 462 kts 71°
2026-04-20 04:20 36.05078 -108.33728 35080 ft 463 kts 71°
2026-04-20 04:21 36.07158 -108.26261 35074 ft 463 kts 71°
2026-04-20 04:21 36.09245 -108.18740 35076 ft 462 kts 71°
2026-04-20 04:22 36.11328 -108.11218 35078 ft 462 kts 71°
2026-04-20 04:22 36.13409 -108.03694 35077 ft 462 kts 71°
2026-04-20 04:23 36.15476 -107.96170 35069 ft 462 kts 71°
2026-04-20 04:23 36.17529 -107.88696 35069 ft 462 kts 71°
2026-04-20 04:24 36.19596 -107.81171 35062 ft 462 kts 71°
2026-04-20 04:24 36.21655 -107.73646 35066 ft 462 kts 71°
2026-04-20 04:25 36.23714 -107.66116 35063 ft 462 kts 71°
2026-04-20 04:25 36.25744 -107.58629 35059 ft 462 kts 71°
2026-04-20 04:26 36.27782 -107.51084 35066 ft 462 kts 71°
2026-04-20 04:26 36.29820 -107.43534 35062 ft 462 kts 71°
2026-04-20 04:27 36.31852 -107.35981 35064 ft 462 kts 71°
2026-04-20 04:27 36.33891 -107.28422 35066 ft 462 kts 71°
2026-04-20 04:28 36.35902 -107.20906 35072 ft 462 kts 71°
2026-04-20 04:28 36.37924 -107.13334 35071 ft 463 kts 71°
2026-04-20 04:29 36.39946 -107.05754 35074 ft 463 kts 71°
2026-04-20 04:29 36.41959 -106.98172 35070 ft 462 kts 72°
2026-04-20 04:30 36.43943 -106.90637 35073 ft 462 kts 72°
2026-04-20 04:30 36.45942 -106.83044 35073 ft 463 kts 72°
2026-04-20 04:31 36.47945 -106.75444 35071 ft 463 kts 72°
2026-04-20 04:31 36.49945 -106.67844 35073 ft 463 kts 72°
2026-04-20 04:32 36.51939 -106.60241 35076 ft 462 kts 72°
2026-04-20 04:32 36.53907 -106.52690 35073 ft 462 kts 72°
2026-04-20 04:33 36.55890 -106.45084 35070 ft 462 kts 72°
2026-04-20 04:33 36.57862 -106.37476 35065 ft 462 kts 72°
2026-04-20 04:34 36.59833 -106.29864 35065 ft 462 kts 72°
2026-04-20 04:34 36.61786 -106.22293 35072 ft 462 kts 72°
2026-04-20 04:35 36.63746 -106.14673 35071 ft 462 kts 72°
2026-04-20 04:35 36.65696 -106.07046 35068 ft 462 kts 72°
2026-04-20 04:36 36.68615 -105.95597 35073 ft 463 kts 72°
2026-04-20 04:37 36.70563 -105.87956 35071 ft 463 kts 72°
2026-04-20 04:37 36.72488 -105.80358 35068 ft 463 kts 72°
2026-04-20 04:38 36.74421 -105.72709 35072 ft 463 kts 72°
2026-04-20 04:38 36.76360 -105.65058 35076 ft 463 kts 72°
2026-04-20 04:39 36.78290 -105.57404 35068 ft 463 kts 72°
2026-04-20 04:39 36.80207 -105.49743 35073 ft 463 kts 72°
2026-04-20 04:40 36.82102 -105.42125 35071 ft 463 kts 73°
2026-04-20 04:40 36.84007 -105.34453 35069 ft 463 kts 73°
2026-04-20 04:41 36.85910 -105.26775 35072 ft 463 kts 73°
2026-04-20 04:41 36.87814 -105.19092 35073 ft 463 kts 73°
2026-04-20 04:42 36.89712 -105.11400 35076 ft 463 kts 73°
2026-04-20 04:42 36.91602 -105.03704 35082 ft 463 kts 73°
2026-04-20 04:43 36.93479 -104.96063 35075 ft 463 kts 73°
2026-04-20 04:43 36.95367 -104.88369 35075 ft 463 kts 73°
2026-04-20 04:44 36.97246 -104.80671 35080 ft 463 kts 73°
2026-04-20 04:44 36.99113 -104.72963 35075 ft 463 kts 73°
2026-04-20 04:45 37.00958 -104.65303 35077 ft 463 kts 73°
2026-04-20 04:45 37.02824 -104.57594 35069 ft 463 kts 73°
2026-04-20 04:46 37.04683 -104.49885 35074 ft 463 kts 73°
2026-04-20 04:46 37.06535 -104.42175 35076 ft 462 kts 73°
2026-04-20 04:47 37.08364 -104.34507 35075 ft 463 kts 73°
2026-04-20 04:47 37.10197 -104.26788 35067 ft 462 kts 73°
2026-04-20 04:48 37.12029 -104.19066 35070 ft 462 kts 73°
2026-04-20 04:48 37.13861 -104.11341 35072 ft 462 kts 73°
2026-04-20 04:49 37.15688 -104.03610 35072 ft 462 kts 73°
2026-04-20 04:49 37.17498 -103.95934 35067 ft 462 kts 73°
2026-04-20 04:50 37.19313 -103.88196 35072 ft 462 kts 73°
2026-04-20 04:50 37.21123 -103.80453 35066 ft 463 kts 73°
2026-04-20 04:51 37.22925 -103.72703 35071 ft 463 kts 73°
2026-04-20 04:51 37.24711 -103.65002 35069 ft 463 kts 74°
2026-04-20 04:52 37.26508 -103.57247 35066 ft 463 kts 73°
2026-04-20 04:52 37.28382 -103.49524 35067 ft 463 kts 72°
2026-04-20 04:53 37.30294 -103.41808 35071 ft 463 kts 73°
2026-04-20 04:53 37.32167 -103.34133 35066 ft 463 kts 73°
2026-04-20 04:54 37.34026 -103.26395 35067 ft 463 kts 73°
2026-04-20 04:54 37.35872 -103.18652 35071 ft 462 kts 73°
2026-04-20 04:55 37.37725 -103.10912 35070 ft 462 kts 73°
2026-04-20 04:55 37.39576 -103.03169 35071 ft 462 kts 73°
2026-04-20 04:56 37.41407 -102.95474 35068 ft 462 kts 73°
2026-04-20 04:56 37.43241 -102.87721 35066 ft 462 kts 73°
2026-04-20 04:57 37.45076 -102.79966 35070 ft 462 kts 73°
2026-04-20 04:57 37.46905 -102.72206 35070 ft 462 kts 73°
2026-04-20 04:58 37.48717 -102.64496 35069 ft 463 kts 73°
2026-04-20 04:58 37.50535 -102.56727 35071 ft 463 kts 73°
2026-04-20 04:59 37.52342 -102.48943 35068 ft 463 kts 73°
2026-04-20 04:59 37.54144 -102.41165 35073 ft 463 kts 73°
2026-04-20 05:00 37.55937 -102.33432 35068 ft 463 kts 73°
2026-04-20 05:00 37.57740 -102.25645 35069 ft 463 kts 73°
2026-04-20 05:01 37.59538 -102.17848 35072 ft 463 kts 74°
2026-04-20 05:01 37.61332 -102.10052 35077 ft 463 kts 74°
2026-04-20 05:02 37.63098 -102.02299 35074 ft 463 kts 74°
2026-04-20 05:02 37.64863 -101.94489 35069 ft 463 kts 74°
2026-04-20 05:03 37.66635 -101.86684 35068 ft 463 kts 74°
2026-04-20 05:03 37.68414 -101.78880 35072 ft 462 kts 74°
2026-04-20 05:04 37.70170 -101.71129 35064 ft 462 kts 74°
2026-04-20 05:04 37.71925 -101.63316 35069 ft 462 kts 74°
2026-04-20 05:05 37.73667 -101.55498 35069 ft 462 kts 74°
2026-04-20 05:05 37.75407 -101.47677 35065 ft 463 kts 74°
2026-04-20 05:06 37.77141 -101.39903 35069 ft 463 kts 74°
2026-04-20 05:06 37.78889 -101.32073 35066 ft 463 kts 74°
2026-04-20 05:07 37.80622 -101.24234 35074 ft 463 kts 74°
2026-04-20 05:07 37.82341 -101.16389 35066 ft 463 kts 75°
2026-04-20 05:08 37.84044 -101.08592 35072 ft 463 kts 74°
2026-04-20 05:08 37.85764 -101.00745 35074 ft 463 kts 74°
2026-04-20 05:09 37.87475 -100.92894 35074 ft 463 kts 75°
2026-04-20 05:09 37.89183 -100.85038 35071 ft 463 kts 75°
2026-04-20 05:10 37.90877 -100.77230 35070 ft 463 kts 75°
2026-04-20 05:10 37.92851 -100.69480 35067 ft 463 kts 68°
2026-04-20 05:11 37.95253 -100.61910 35077 ft 463 kts 68°
2026-04-20 05:11 37.97649 -100.54331 35072 ft 463 kts 68°
2026-04-20 05:12 38.00016 -100.46793 35077 ft 463 kts 68°
2026-04-20 05:12 38.02392 -100.39195 35078 ft 464 kts 68°
2026-04-20 05:13 38.04760 -100.31594 35077 ft 463 kts 68°
2026-04-20 05:13 38.07128 -100.23982 35081 ft 463 kts 68°
2026-04-20 05:14 38.09475 -100.16422 35081 ft 463 kts 68°
2026-04-20 05:14 38.11839 -100.08810 35076 ft 463 kts 68°
2026-04-20 05:15 38.14194 -100.01196 35080 ft 463 kts 69°
2026-04-20 05:15 38.16538 -99.93570 35073 ft 463 kts 69°
2026-04-20 05:16 38.18868 -99.85994 35073 ft 463 kts 69°
2026-04-20 05:16 38.21210 -99.78365 35079 ft 463 kts 69°
2026-04-20 05:17 38.23542 -99.70729 35076 ft 463 kts 69°
2026-04-20 05:17 38.25863 -99.63092 35076 ft 463 kts 69°
2026-04-20 05:18 38.28170 -99.55508 35069 ft 463 kts 69°
2026-04-20 05:18 38.30487 -99.47864 35066 ft 463 kts 69°
2026-04-20 05:19 38.32796 -99.40216 35067 ft 463 kts 69°
2026-04-20 05:19 38.35101 -99.32566 35069 ft 463 kts 69°
2026-04-20 05:20 38.37397 -99.24963 35065 ft 463 kts 69°
2026-04-20 05:20 38.39699 -99.17299 35071 ft 463 kts 69°
2026-04-20 05:21 38.41987 -99.09624 35068 ft 463 kts 69°
2026-04-20 05:21 38.44274 -99.01939 35077 ft 464 kts 69°
2026-04-20 05:22 38.46543 -98.94298 35075 ft 464 kts 69°
2026-04-20 05:22 38.48824 -98.86598 35082 ft 464 kts 69°
2026-04-20 05:23 38.51105 -98.78900 35073 ft 464 kts 69°
2026-04-20 05:23 38.53375 -98.71196 35080 ft 464 kts 69°
2026-04-20 05:24 38.55623 -98.63537 35071 ft 463 kts 69°
2026-04-20 05:24 38.57878 -98.55825 35075 ft 463 kts 69°
2026-04-20 05:25 38.60132 -98.48103 35074 ft 464 kts 69°
2026-04-20 05:25 38.62383 -98.40381 35080 ft 464 kts 69°
2026-04-20 05:26 38.64620 -98.32706 35078 ft 464 kts 70°
2026-04-20 05:26 38.66861 -98.24973 35077 ft 463 kts 70°
2026-04-20 05:27 38.69088 -98.17233 35075 ft 463 kts 70°
2026-04-20 05:27 38.71313 -98.09491 35079 ft 463 kts 70°
2026-04-20 05:28 38.73519 -98.01796 35080 ft 464 kts 70°
2026-04-20 05:28 38.75735 -97.94041 35081 ft 464 kts 70°
2026-04-20 05:29 38.77957 -97.86285 35078 ft 463 kts 70°
2026-04-20 05:29 38.80170 -97.78524 35080 ft 464 kts 70°
2026-04-20 05:30 38.82370 -97.70759 35081 ft 464 kts 70°
2026-04-20 05:30 38.84545 -97.63033 35075 ft 463 kts 70°
2026-04-20 05:31 38.86743 -97.55260 35076 ft 463 kts 70°
2026-04-20 05:31 38.88937 -97.47481 35080 ft 464 kts 70°
2026-04-20 05:32 38.91106 -97.39747 35077 ft 464 kts 70°
2026-04-20 05:32 38.93277 -97.31950 35075 ft 463 kts 70°
2026-04-20 05:33 38.95448 -97.24160 35074 ft 463 kts 70°
2026-04-20 05:33 38.97614 -97.16368 35078 ft 463 kts 70°
2026-04-20 05:34 38.99783 -97.08568 35072 ft 463 kts 70°
2026-04-20 05:34 39.03000 -96.96908 35076 ft 464 kts 70°
2026-04-20 05:35 39.05150 -96.89087 35073 ft 464 kts 70°
2026-04-20 05:35 39.07296 -96.81256 35077 ft 464 kts 70°
2026-04-20 05:36 39.09421 -96.73477 35083 ft 464 kts 70°
2026-04-20 05:36 39.11555 -96.65643 35082 ft 464 kts 71°
2026-04-20 05:37 39.13682 -96.57806 35081 ft 463 kts 71°
2026-04-20 05:37 39.15806 -96.49970 35074 ft 463 kts 71°
2026-04-20 05:38 39.17914 -96.42181 35074 ft 463 kts 71°
2026-04-20 05:38 39.20027 -96.34333 35071 ft 463 kts 71°
2026-04-20 05:39 39.22136 -96.26480 35079 ft 463 kts 71°
2026-04-20 05:39 39.24237 -96.18626 35077 ft 463 kts 71°
2026-04-20 05:40 39.26320 -96.10816 35073 ft 463 kts 71°
2026-04-20 05:40 39.28410 -96.02949 35074 ft 463 kts 71°
2026-04-20 05:41 39.30491 -95.95072 35073 ft 464 kts 71°
2026-04-20 05:41 39.32556 -95.87243 35076 ft 464 kts 71°
2026-04-20 05:42 39.34637 -95.79362 35071 ft 464 kts 71°
2026-04-20 05:42 39.36708 -95.71475 35081 ft 464 kts 71°
2026-04-20 05:43 39.38771 -95.63581 35074 ft 464 kts 71°
2026-04-20 05:43 39.40825 -95.55678 35081 ft 464 kts 71°
2026-04-20 05:44 39.42870 -95.47826 35081 ft 464 kts 71°
2026-04-20 05:44 39.44927 -95.39921 35081 ft 464 kts 71°
2026-04-20 05:45 39.46975 -95.32011 35081 ft 464 kts 71°
2026-04-20 05:45 39.49011 -95.24093 35079 ft 464 kts 71°
2026-04-20 05:46 39.51035 -95.16229 35081 ft 464 kts 71°
2026-04-20 05:46 39.53068 -95.08303 35076 ft 464 kts 71°
2026-04-20 05:47 39.55091 -95.00375 35078 ft 463 kts 72°
2026-04-20 05:47 39.57100 -94.92441 35071 ft 463 kts 72°
2026-04-20 05:48 39.59087 -94.84555 35076 ft 463 kts 72°
2026-04-20 05:48 39.61097 -94.76616 35079 ft 463 kts 72°
2026-04-20 05:49 39.63100 -94.68674 35078 ft 463 kts 72°
2026-04-20 05:49 39.65081 -94.60776 35078 ft 463 kts 72°
2026-04-20 05:50 39.67068 -94.52821 35078 ft 463 kts 72°
2026-04-20 05:50 39.69053 -94.44863 35075 ft 463 kts 72°
2026-04-20 05:51 39.71033 -94.36902 35079 ft 463 kts 72°
2026-04-20 05:51 39.72996 -94.28989 35071 ft 463 kts 72°
2026-04-20 05:52 39.74968 -94.21016 35070 ft 463 kts 72°
2026-04-20 05:52 39.76925 -94.13039 35075 ft 464 kts 72°
2026-04-20 05:53 39.78880 -94.05053 35079 ft 464 kts 72°
2026-04-20 05:53 39.80820 -93.97117 35078 ft 463 kts 72°
2026-04-20 05:54 39.82771 -93.89127 35071 ft 463 kts 72°
2026-04-20 05:54 39.84711 -93.81137 35071 ft 463 kts 72°
2026-04-20 05:55 39.86650 -93.73139 35078 ft 463 kts 72°
2026-04-20 05:55 39.88563 -93.65188 35074 ft 463 kts 72°
2026-04-20 05:56 39.90484 -93.57180 35069 ft 463 kts 72°
2026-04-20 05:56 39.92405 -93.49170 35070 ft 463 kts 72°
2026-04-20 05:57 39.94318 -93.41156 35066 ft 463 kts 73°
2026-04-20 05:57 39.96209 -93.33195 35074 ft 463 kts 73°
2026-04-20 05:58 39.98103 -93.25173 35068 ft 463 kts 73°
2026-04-20 05:58 39.99994 -93.17147 35069 ft 463 kts 73°
2026-04-20 05:59 40.01882 -93.09122 35071 ft 463 kts 73°
2026-04-20 05:59 40.03760 -93.01151 35065 ft 463 kts 73°
2026-04-20 06:00 40.05638 -92.93123 35066 ft 463 kts 73°
2026-04-20 06:00 40.07511 -92.85087 35064 ft 463 kts 73°
2026-04-20 06:01 40.09385 -92.77050 35065 ft 462 kts 73°
2026-04-20 06:01 40.11224 -92.69063 35064 ft 462 kts 73°
2026-04-20 06:02 40.13071 -92.61014 35063 ft 462 kts 72°
2026-04-20 06:02 40.15589 -92.53292 35061 ft 462 kts 65°
2026-04-20 06:03 40.18311 -92.45675 35061 ft 463 kts 65°
2026-04-20 06:03 40.20998 -92.38090 35062 ft 463 kts 65°
2026-04-20 06:04 40.23691 -92.30446 35062 ft 463 kts 65°
2026-04-20 06:04 40.26385 -92.22791 35060 ft 463 kts 65°
2026-04-20 06:05 40.29074 -92.15131 35059 ft 463 kts 65°
2026-04-20 06:05 40.31739 -92.07513 35065 ft 463 kts 65°
2026-04-20 06:06 40.34417 -91.99836 35066 ft 463 kts 65°
2026-04-20 06:06 40.37094 -91.92157 35065 ft 463 kts 65°
2026-04-20 06:07 40.39774 -91.84469 35069 ft 463 kts 65°
2026-04-20 06:07 40.42419 -91.76818 35073 ft 464 kts 65°
2026-04-20 06:08 40.45081 -91.69112 35068 ft 464 kts 65°
2026-04-20 06:08 40.47747 -91.61403 35074 ft 463 kts 65°
2026-04-20 06:09 40.50401 -91.53686 35074 ft 463 kts 65°
2026-04-20 06:09 40.53048 -91.45963 35070 ft 464 kts 66°
2026-04-20 06:10 40.55682 -91.38223 35075 ft 464 kts 66°
2026-04-20 06:10 40.58295 -91.30535 35078 ft 463 kts 66°
2026-04-20 06:11 40.60930 -91.22796 35076 ft 463 kts 66°
2026-04-20 06:11 40.63556 -91.15055 35071 ft 463 kts 66°
2026-04-20 06:12 40.66176 -91.07300 35072 ft 463 kts 66°
2026-04-20 06:12 40.68772 -90.99591 35071 ft 463 kts 66°
2026-04-20 06:13 40.71386 -90.91826 35073 ft 464 kts 66°
2026-04-20 06:13 40.73997 -90.84053 35075 ft 464 kts 66°
2026-04-20 06:14 40.76595 -90.76268 35076 ft 464 kts 66°
2026-04-20 06:14 40.79172 -90.68525 35080 ft 464 kts 66°
2026-04-20 06:15 40.81766 -90.60729 35072 ft 464 kts 66°
2026-04-20 06:15 40.84350 -90.52927 35075 ft 464 kts 66°
2026-04-20 06:16 40.86930 -90.45122 35080 ft 464 kts 66°
2026-04-20 06:16 40.89488 -90.37361 35075 ft 464 kts 66°
2026-04-20 06:17 40.92060 -90.29552 35070 ft 463 kts 66°
2026-04-20 06:17 40.94623 -90.21730 35072 ft 463 kts 66°
2026-04-20 06:18 40.97177 -90.13907 35072 ft 463 kts 66°
2026-04-20 06:18 40.99728 -90.06073 35074 ft 463 kts 66°
2026-04-20 06:19 41.02259 -89.98285 35071 ft 463 kts 66°
2026-04-20 06:19 41.04791 -89.90440 35073 ft 463 kts 67°
2026-04-20 06:20 41.07318 -89.82589 35071 ft 463 kts 67°
2026-04-20 06:20 41.09847 -89.74743 35063 ft 463 kts 67°
2026-04-20 06:21 41.12358 -89.66945 35068 ft 463 kts 67°
2026-04-20 06:21 41.14839 -89.59209 35062 ft 463 kts 67°
2026-04-20 06:22 41.17214 -89.51786 35061 ft 463 kts 67°
2026-04-20 06:22 41.19721 -89.43907 35068 ft 463 kts 67°
2026-04-20 06:23 41.22206 -89.36078 35070 ft 463 kts 67°
2026-04-20 06:23 41.24707 -89.28183 35071 ft 464 kts 67°
2026-04-20 06:24 41.27202 -89.20276 35075 ft 464 kts 67°
2026-04-20 06:24 41.29692 -89.12362 35073 ft 464 kts 67°
2026-04-20 06:25 41.32180 -89.04451 35076 ft 464 kts 67°
2026-04-20 06:25 41.34641 -88.96587 35068 ft 463 kts 67°
2026-04-20 06:26 41.37113 -88.88666 35071 ft 463 kts 67°
2026-04-20 06:26 41.39580 -88.80738 35070 ft 463 kts 68°
2026-04-20 06:27 41.42038 -88.72801 35070 ft 464 kts 68°
2026-04-20 06:27 41.44483 -88.64910 35071 ft 464 kts 68°
2026-04-20 06:28 41.46935 -88.56964 35071 ft 464 kts 68°
2026-04-20 06:28 41.49385 -88.49005 35077 ft 464 kts 68°
2026-04-20 06:29 41.51826 -88.41046 35068 ft 464 kts 68°
2026-04-20 06:29 41.54202 -88.33023 35219 ft 477 kts 69°
2026-04-20 06:30 41.55023 -88.28665 35226 ft 491 kts 76°
2026-04-20 06:30 41.55561 -88.24120 35278 ft 500 kts 76°
2026-04-20 06:30 41.56671 -88.14853 35339 ft 509 kts 75°
2026-04-20 06:31 41.57783 -88.05530 35341 ft 510 kts 75°
2026-04-20 06:31 41.58878 -87.96219 35339 ft 511 kts 75°
2026-04-20 06:32 41.59970 -87.86828 35339 ft 512 kts 75°
2026-04-20 06:32 41.61050 -87.77429 35342 ft 512 kts 75°
2026-04-20 06:33 41.62129 -87.68021 35348 ft 512 kts 75°
2026-04-20 06:33 41.63202 -87.58674 35352 ft 512 kts 75°
2026-04-20 06:34 41.64271 -87.49259 35348 ft 513 kts 76°
2026-04-20 06:35 41.65857 -87.35125 35343 ft 512 kts 76°
2026-04-20 06:35 41.66899 -87.25690 35340 ft 513 kts 76°
2026-04-20 06:36 41.67922 -87.16315 35338 ft 513 kts 76°
2026-04-20 06:36 41.68953 -87.06875 35345 ft 513 kts 76°
2026-04-20 06:37 41.69980 -86.97423 35343 ft 513 kts 76°
2026-04-20 06:37 41.71002 -86.87963 35346 ft 514 kts 77°
2026-04-20 06:38 41.72006 -86.78557 35352 ft 514 kts 77°
2026-04-20 06:38 41.73011 -86.69084 35351 ft 514 kts 77°
2026-04-20 06:39 41.74003 -86.59594 35357 ft 514 kts 77°
2026-04-20 06:39 41.74989 -86.50111 35344 ft 514 kts 77°
2026-04-20 06:40 41.75958 -86.40696 35343 ft 514 kts 78°
2026-04-20 06:40 41.76998 -86.31248 35345 ft 510 kts 72°
2026-04-20 06:41 41.78792 -86.22096 35342 ft 507 kts 70°
2026-04-20 06:41 41.80590 -86.12951 35339 ft 508 kts 70°
2026-04-20 06:42 41.82370 -86.03792 35337 ft 508 kts 70°
2026-04-20 06:42 41.84128 -85.94691 35337 ft 508 kts 70°
2026-04-20 06:43 41.85893 -85.85529 35335 ft 508 kts 70°
2026-04-20 06:43 41.87662 -85.76338 35157 ft 515 kts 70°
2026-04-20 06:43 41.88568 -85.71647 34145 ft 525 kts 70°
2026-04-20 06:44 41.89478 -85.66907 33549 ft 521 kts 70°
2026-04-20 06:44 41.90351 -85.62297 33110 ft 513 kts 70°
2026-04-20 06:44 41.91223 -85.57668 32491 ft 510 kts 70°
2026-04-20 06:44 41.92085 -85.53084 32024 ft 503 kts 70°
2026-04-20 06:45 41.92941 -85.48540 31102 ft 505 kts 69°
2026-04-20 06:45 41.93822 -85.43917 29817 ft 516 kts 69°
2026-04-20 06:45 41.94715 -85.39225 28738 ft 520 kts 69°
2026-04-20 06:45 41.95607 -85.34512 27689 ft 522 kts 69°
2026-04-20 06:46 41.96196 -85.31380 26974 ft 522 kts 69°
2026-04-20 06:46 41.97080 -85.26647 25983 ft 521 kts 70°
2026-04-20 06:46 41.97950 -85.21944 25026 ft 517 kts 70°
2026-04-20 06:46 41.99089 -85.15755 23773 ft 512 kts 70°
2026-04-20 06:47 41.99936 -85.11140 22907 ft 505 kts 71°
2026-04-20 06:47 42.00362 -85.08004 22340 ft 505 kts 78°
2026-04-20 06:47 42.00506 -85.03311 21573 ft 500 kts 89°
2026-04-20 06:47 42.00278 -84.98759 20840 ft 491 kts 91°
2026-04-20 06:48 42.00042 -84.94218 20051 ft 483 kts 91°
2026-04-20 06:48 41.99814 -84.89746 19412 ft 473 kts 91°
2026-04-20 06:48 41.99593 -84.85428 19268 ft 453 kts 91°
2026-04-20 06:48 41.99378 -84.81291 19142 ft 436 kts 91°
2026-04-20 06:49 41.99103 -84.76039 18965 ft 415 kts 91°
2026-04-20 06:49 41.98970 -84.73453 18758 ft 408 kts 91°
2026-04-20 06:49 41.98776 -84.69680 18472 ft 402 kts 91°
2026-04-20 06:49 41.98587 -84.65993 18225 ft 399 kts 91°
2026-04-20 06:50 41.98393 -84.62282 17973 ft 397 kts 91°
2026-04-20 06:50 41.98198 -84.58588 17727 ft 395 kts 91°
2026-04-20 06:50 41.98003 -84.54918 17474 ft 393 kts 91°
2026-04-20 06:50 41.97809 -84.51273 17218 ft 390 kts 91°
2026-04-20 06:51 41.97613 -84.47648 16973 ft 388 kts 91°
2026-04-20 06:51 41.97416 -84.44044 16722 ft 385 kts 91°
2026-04-20 06:51 41.97218 -84.40463 16476 ft 383 kts 91°
2026-04-20 06:51 41.97022 -84.36953 16225 ft 381 kts 91°
2026-04-20 06:52 41.96820 -84.33414 15975 ft 378 kts 92°
2026-04-20 06:52 41.96690 -84.29901 15724 ft 374 kts 85°
2026-04-20 06:52 41.96929 -84.26445 15474 ft 370 kts 78°
2026-04-20 06:52 41.97265 -84.23033 15225 ft 368 kts 79°
2026-04-20 06:53 41.97590 -84.19629 14976 ft 366 kts 79°
2026-04-20 06:53 41.97906 -84.16247 14726 ft 364 kts 79°
2026-04-20 06:53 41.98214 -84.12883 14475 ft 361 kts 79°
2026-04-20 06:53 41.98516 -84.09583 14228 ft 360 kts 80°
2026-04-20 06:54 41.98908 -84.06277 13978 ft 356 kts 73°
2026-04-20 06:54 41.99613 -84.03104 13731 ft 353 kts 69°
2026-04-20 06:54 42.00350 -83.99967 13478 ft 351 kts 69°
2026-04-20 06:54 42.01081 -83.96840 13232 ft 350 kts 69°
2026-04-20 06:55 42.01801 -83.93716 12979 ft 349 kts 69°
2026-04-20 06:55 42.02662 -83.90720 12726 ft 338 kts 59°
2026-04-20 06:55 42.03875 -83.88093 12481 ft 325 kts 47°
2026-04-20 06:55 42.05334 -83.85840 12228 ft 315 kts 43°
2026-04-20 06:56 42.06765 -83.83701 12033 ft 308 kts 43°
2026-04-20 06:56 42.08166 -83.81584 11998 ft 297 kts 43°
2026-04-20 06:56 42.09542 -83.79502 12003 ft 298 kts 43°
2026-04-20 06:56 42.10925 -83.77417 12001 ft 298 kts 43°
2026-04-20 06:57 42.12309 -83.75329 12002 ft 299 kts 43°
2026-04-20 06:57 42.13661 -83.73197 12002 ft 301 kts 50°
2026-04-20 06:57 42.14702 -83.70724 12002 ft 307 kts 64°
2026-04-20 06:57 42.15403 -83.68001 12002 ft 308 kts 68°
2026-04-20 06:58 42.16067 -83.65294 12002 ft 308 kts 68°
2026-04-20 06:58 42.16743 -83.62553 12002 ft 308 kts 68°
2026-04-20 06:58 42.17423 -83.59814 12010 ft 308 kts 68°
2026-04-20 06:58 42.18117 -83.57079 12010 ft 307 kts 64°
2026-04-20 06:59 42.19119 -83.54570 12009 ft 302 kts 49°
2026-04-20 06:59 42.20510 -83.52497 12012 ft 296 kts 35°
2026-04-20 06:59 42.22147 -83.50911 12014 ft 283 kts 27°
2026-04-20 06:59 42.23760 -83.49469 11895 ft 274 kts 27°
2026-04-20 07:00 42.25321 -83.48063 11770 ft 265 kts 27°
2026-04-20 07:00 42.26811 -83.46714 11645 ft 258 kts 28°
2026-04-20 07:00 42.28279 -83.45381 11519 ft 251 kts 28°
2026-04-20 07:00 42.29704 -83.44081 11391 ft 244 kts 27°
2026-04-20 07:01 42.31087 -83.42814 11261 ft 235 kts 27°
2026-04-20 07:01 42.32417 -83.41585 10934 ft 229 kts 27°
2026-04-20 07:01 42.33726 -83.40374 10539 ft 227 kts 28°
2026-04-20 07:01 42.35019 -83.39182 10128 ft 224 kts 28°
2026-04-20 07:02 42.36302 -83.38004 9708 ft 222 kts 27°
2026-04-20 07:02 42.37557 -83.36856 9298 ft 220 kts 27°
2026-04-20 07:02 42.38817 -83.35703 8884 ft 218 kts 28°
2026-04-20 07:02 42.40064 -83.34564 8469 ft 215 kts 27°
2026-04-20 07:03 42.41302 -83.33436 8061 ft 214 kts 27°
2026-04-20 07:03 42.42534 -83.32318 7710 ft 213 kts 27°
2026-04-20 07:03 42.43762 -83.31215 7465 ft 211 kts 27°
2026-04-20 07:03 42.44960 -83.30136 7327 ft 201 kts 27°
2026-04-20 07:04 42.46099 -83.29106 7076 ft 194 kts 27°
2026-04-20 07:04 42.47215 -83.28095 6728 ft 192 kts 27°
2026-04-20 07:04 42.48308 -83.27108 6394 ft 190 kts 28°
2026-04-20 07:04 42.49341 -83.25986 6016 ft 196 kts 49°
2026-04-20 07:05 42.49767 -83.24218 5678 ft 205 kts 89°
2026-04-20 07:05 42.49397 -83.22345 5320 ft 209 kts 111°
2026-04-20 07:05 42.48675 -83.20643 4959 ft 210 kts 135°
2026-04-20 07:05 42.47424 -83.19727 4632 ft 205 kts 176°
2026-04-20 07:06 42.46123 -83.20177 4302 ft 192 kts 226°
2026-04-20 07:06 42.45331 -83.21575 3913 ft 189 kts 238°
2026-04-20 07:06 42.44265 -83.22641 3627 ft 197 kts 202°
2026-04-20 07:06 42.42980 -83.23313 3387 ft 198 kts 207°
2026-04-20 07:07 42.41759 -83.24106 3148 ft 198 kts 209°
2026-04-20 07:07 42.40530 -83.24937 2937 ft 196 kts 208°
2026-04-20 07:07 42.39309 -83.25743 2986 ft 196 kts 208°
2026-04-20 07:07 42.38142 -83.26506 2998 ft 177 kts 208°
2026-04-20 07:08 42.37080 -83.27199 2980 ft 162 kts 209°
2026-04-20 07:08 42.36086 -83.27847 2984 ft 156 kts 208°
2026-04-20 07:08 42.35115 -83.28482 2993 ft 154 kts 208°
2026-04-20 07:08 42.34146 -83.29114 2990 ft 155 kts 208°
2026-04-20 07:09 42.33196 -83.29735 2885 ft 152 kts 209°
2026-04-20 07:09 42.32258 -83.30346 2725 ft 147 kts 210°
2026-04-20 07:09 42.31368 -83.30925 2559 ft 138 kts 209°
2026-04-20 07:09 42.30522 -83.31477 2369 ft 133 kts 207°
2026-04-20 07:10 42.29698 -83.32014 2195 ft 131 kts 206°
2026-04-20 07:10 42.28875 -83.32550 2016 ft 132 kts 205°
2026-04-20 07:10 42.28041 -83.33093 1846 ft 134 kts 206°
2026-04-20 07:10 42.27214 -83.33631 1680 ft 134 kts 206°
2026-04-20 07:11 42.26376 -83.34176 1496 ft 134 kts 206°
2026-04-20 07:11 42.25538 -83.34721 1320 ft 133 kts 204°
2026-04-20 07:11 42.24687 -83.35204 1247 ft 133 kts 203°
2026-04-20 07:11 42.23846 -83.35747 1012 ft 133 kts 206°
2026-04-20 07:12 42.23035 -83.36340 768 ft 131 kts 206°
2026-04-20 07:12 42.22230 -83.36915 649 ft 124 kts 208°
2026-04-20 07:12 42.21586 -83.37388 644 ft 87 kts 210°
2026-04-20 07:12 42.21273 -83.37619 647 ft 36 kts 208°
2026-04-20 07:13 42.21067 -83.37745 646 ft 32 kts 192°
2026-04-20 07:13 42.20922 -83.37723 649 ft 12 kts 162°
2026-04-20 07:13 42.20891 -83.37678 647 ft 8 kts 75°
2026-04-20 07:13 42.20977 -83.37591 649 ft 18 kts 29°
2026-04-20 07:14 42.21097 -83.37501 648 ft 22 kts 29°
2026-04-20 07:14 42.21243 -83.37393 647 ft 22 kts 28°
2026-04-20 07:14 42.21360 -83.37312 647 ft 21 kts 27°
2026-04-20 07:14 42.21507 -83.37206 647 ft 27 kts 28°
2026-04-20 07:15 42.21652 -83.37095 647 ft 22 kts 28°
2026-04-20 07:15 42.21796 -83.36990 647 ft 25 kts 28°
2026-04-20 07:15 42.21942 -83.36883 647 ft 23 kts 27°
2026-04-20 07:15 42.22027 -83.36775 647 ft 17 kts 90°
2026-04-20 07:16 42.21969 -83.36610 647 ft 22 kts 118°
2026-04-20 07:16 42.21912 -83.36467 647 ft 15 kts 118°
2026-04-20 07:16 42.21854 -83.36320 647 ft 20 kts 119°
2026-04-20 07:16 42.21811 -83.36139 647 ft 17 kts 88°
2026-04-20 07:17 42.21815 -83.35954 646 ft 22 kts 88°
2026-04-20 07:17 42.21823 -83.35758 644 ft 14 kts 76°
2026-04-20 07:17 42.21896 -83.35734 645 ft 25 kts 18°
2026-04-20 07:17 42.22046 -83.35626 646 ft 16 kts 27°
2026-04-20 07:18 42.22130 -83.35567 647 ft 13 kts 27°
2026-04-20 07:18 42.22221 -83.35499 648 ft 17 kts 29°
2026-04-20 07:18 42.22318 -83.35426 647 ft 15 kts 29°
2026-04-20 07:18 42.22421 -83.35349 648 ft 18 kts 28°
2026-04-20 07:19 42.22504 -83.35290 647 ft 14 kts 27°
2026-04-20 07:19 42.22536 -83.35201 647 ft 14 kts 115°
2026-04-20 07:19 42.22487 -83.35182 646 ft 8 kts 184°
2026-04-20 07:19 42.22469 -83.35126 646 ft 8 kts 96°
2026-04-20 07:20 42.22506 -83.35077 646 ft 8 kts 28°
2026-04-20 07:20 42.22521 -83.35046 646 ft 5 kts 88°
2026-04-20 07:20 42.22498 -83.35012 647 ft 3 kts 147°
2026-04-20 07:20 42.22479 -83.34994 646 ft 1 kts 145°
2026-04-20 07:21 42.22477 -83.34992 646 ft 0 kts 145°